Location: Diguira
(13.1838°N, 4.9109°W)
Time: 17:03:01
(UTC+00:00)

USA 234 - Pass Details

Date: 18 September 2020
Orbit: 1102 x 1106 km, 123.0° (Epoch: 16 October)

Event Time Altitude Azimuth Distance (km) Brightness Sun altitude
Rises 18:43:09 0° 36° (NE) 3,913 5.8 -6.9°
Reaches altitude 10° 18:45:38 10° 36° (NE) 2,956 5.2 -7.5°
Maximum altitude 18:52:11 86° 307° (NW) 1,107 3.3 -9.1°
Drops below altitude 10° 18:58:43 10° 219° (SW) 2,957 6.0 -10.7°
Sets 19:01:12 0° 218° (SW) 3,915 6.7 -11.3°
